Weather History for Lemoore NAS, CA

Change the Weather History Date:

Tuesday, January 29, 2013

  Actual Average Record
Temperature  
Mean Temperature 42 °F -  
Max Temperature 55 °F 55 °F 73 °F (2014)
Min Temperature 30 °F 38 °F 30 °F (1999)
Degree Days  
Heating Degree Days 22    
Moisture  
Dew Point 34 °F    
Average Humidity 76    
Maximum Humidity 93    
Minimum Humidity 51    
Precipitation  
Precipitation 0.00 in - - ()
Sea Level Pressure  
Sea Level Pressure 30.30 in    
Wind  
Wind Speed 7 mph (NW)    
Max Wind Speed 16 mph    
Max Gust Speed -    
Visibility 10 miles    
Events      
Averages and records for this station are not official NWS values.
T = Trace of Precipitation, MM = Missing Value Source: NWS Daily Summary

Daily Weather History Graph

Daily Weather History Graph

Search for Another Location

Airport:

Trip Planner

Search our weather history database for the weather conditions in past years. The results will help you decide how hot, cold, wet, or windy it might be!

Date:

Astronomy

Jan. 29, 2013 Rise Set
Actual Time 7:03 AM PST 5:23 PM PST
Civil Twilight 6:35 AM PST 5:50 PM PST
Nautical Twilight 6:04 AM PST 6:21 PM PST
Astronomical Twilight 5:34 AM PST 6:51 PM PST
Moon 8:17 PM PST (1/29) 8:08 AM PST (1/29)
Length of Visible Light 11h 14m
Length of Day
10h 20m
Waning Gibbous, 93% of the Moon is Illuminated
Jan 29
Waning Gibbous
Feb 3
Last Quarter
Feb 9
New
Feb 17
First Quarter
Feb 25
Full

Hourly Weather History & Observations

Time (PST) Temp. Windchill Dew Point Humidity Pressure Visibility Wind Dir Wind Speed Gust Speed Precip Events Conditions
12:56 AM 33.1 °F 26.9 °F 28.0 °F 82% 30.27 in 10.0 mi WSW 6.9 mph - N/A   Clear
1:56 AM 34.0 °F 29.8 °F 28.9 °F 82% 30.28 in 10.0 mi West 4.6 mph - N/A   Clear
2:56 AM 34.0 °F 28.0 °F 30.0 °F 85% 30.28 in 10.0 mi West 6.9 mph - N/A   Clear
3:56 AM 34.0 °F 31.0 °F 28.9 °F 82% 30.28 in 10.0 mi East 3.5 mph - N/A   Clear
4:56 AM 30.0 °F 25.2 °F 27.0 °F 88% 30.29 in 10.0 mi SW 4.6 mph - N/A   Clear
5:56 AM 30.0 °F 25.2 °F 27.0 °F 88% 30.29 in 10.0 mi WSW 4.6 mph - N/A   Clear
6:56 AM 32.0 °F 28.7 °F 28.9 °F 88% 30.30 in 10.0 mi SW 3.5 mph - N/A   Clear
7:13 AM 30.2 °F 26.7 °F 28.4 °F 93% 30.30 in 10.0 mi West 3.5 mph - N/A   Mostly Cloudy
7:56 AM 33.1 °F 26.9 °F 30.9 °F 92% 30.32 in 10.0 mi NW 6.9 mph - N/A   Mostly Cloudy
8:56 AM 41.0 °F 37.1 °F 37.0 °F 86% 30.34 in 10.0 mi NW 5.8 mph - N/A   Mostly Cloudy
9:56 AM 46.0 °F 43.1 °F 37.0 °F 71% 30.35 in 10.0 mi NNW 5.8 mph - N/A   Mostly Cloudy
10:56 AM 51.1 °F - 37.0 °F 59% 30.34 in 10.0 mi North 11.5 mph - N/A   Mostly Cloudy
11:56 AM 53.1 °F - 37.0 °F 55% 30.32 in 10.0 mi NNW 10.4 mph - N/A   Mostly Cloudy
12:56 PM 54.0 °F - 37.0 °F 53% 30.31 in 10.0 mi NNW 11.5 mph - N/A   Mostly Cloudy
1:56 PM 55.0 °F - 37.0 °F 51% 30.28 in 10.0 mi NNW 12.7 mph - N/A   Mostly Cloudy
2:56 PM 55.0 °F - 37.0 °F 51% 30.28 in 10.0 mi NNW 13.8 mph - N/A   Overcast
3:56 PM 54.0 °F - 36.0 °F 51% 30.27 in 10.0 mi North 16.1 mph - N/A   Overcast
4:56 PM 52.0 °F - 37.9 °F 59% 30.27 in 10.0 mi NNW 9.2 mph - N/A   Overcast
5:56 PM 46.0 °F 43.1 °F 37.0 °F 71% 30.29 in 10.0 mi NNW 5.8 mph - N/A   Mostly Cloudy
6:56 PM 42.1 °F 38.4 °F 36.0 °F 79% 30.30 in 10.0 mi NNW 5.8 mph - N/A   Mostly Cloudy
7:56 PM 42.1 °F 37.1 °F 37.0 °F 82% 30.31 in 10.0 mi NNW 8.1 mph - N/A   Mostly Cloudy
8:56 PM 39.9 °F 35.1 °F 35.1 °F 83% 30.32 in 10.0 mi North 6.9 mph - N/A   Scattered Clouds
9:56 PM 39.9 °F 36.7 °F 36.0 °F 86% 30.32 in 10.0 mi NNW 4.6 mph - N/A   Scattered Clouds
10:56 PM 37.0 °F 34.5 °F 33.1 °F 86% 30.33 in 10.0 mi North 3.5 mph - N/A   Partly Cloudy
11:56 PM 37.9 °F - 34.0 °F 86% 30.33 in 10.0 mi Calm Calm - N/A   Partly Cloudy